Weather History for Cape Girardeau, MO

Change the Weather History Date:

Saturday, December 8, 2012

  Actual Average Record
Temperature  
Mean Temperature 54 °F 38 °F  
Max Temperature 58 °F 47 °F 68 °F (1966)
Min Temperature 49 °F 29 °F 6 °F (2005)
Degree Days  
Heating Degree Days 11 27  
Month to date heating degree days 78 209  
Since 1 July heating degree days 1017 1060  
Cooling Degree Days 0 0  
Month to date cooling degree days 0 0  
Year to date cooling degree days 1784 1453  
Growing Degree Days 2 (Base 50)    
Moisture  
Dew Point 49 °F    
Average Humidity 85    
Maximum Humidity 93    
Minimum Humidity 77    
Precipitation  
Precipitation T in 0.15 in 1.79 in (1972)
Month to date precipitation 0.14 1.18  
Year to date precipitation 25.42 43.74  
Sea Level Pressure  
Sea Level Pressure 29.92 in    
Wind  
Wind Speed 8 mph (NNE)    
Max Wind Speed 15 mph    
Max Gust Speed 17 mph    
Visibility 8 miles    
Events      
T = Trace of Precipitation, MM = Missing Value Source: NWS Daily Summary

Daily Weather History Graph

Daily Weather History Graph

Search for Another Location

Airport:

Trip Planner

Search our weather history database for the weather conditions in past years. The results will help you decide how hot, cold, wet, or windy it might be!

Date:

Astronomy

Dec. 08, 2012 Rise Set
Actual Time 7:00 AM CST 4:40 PM CST
Civil Twilight 6:31 AM CST 5:09 PM CST
Nautical Twilight 5:58 AM CST 5:42 PM CST
Astronomical Twilight 5:26 AM CST 6:13 PM CST
Moon 1:30 AM CST (12/8) 1:05 PM CST (12/8)
Length of Visible Light 10h 38m
Length of Day
9h 40m
Waning Crescent, 28% of the Moon is Illuminated
Dec 8
Waning Crescent
Dec 13
New
Dec 19
First Quarter
Dec 28
Full
Jan 4
Last Quarter

Hourly Weather History & Observations

Time (CST) Temp. Dew Point Humidity Pressure Visibility Wind Dir Wind Speed Gust Speed Precip Events Conditions
12:53 AM 57.0 °F 53.1 °F 87% 29.85 in 7.0 mi SSW 3.5 mph - N/A   Overcast
1:37 AM 57.2 °F 53.6 °F 88% 29.86 in 8.0 mi SW 6.9 mph - N/A   Overcast
1:53 AM 57.0 °F 53.1 °F 87% 29.86 in 8.0 mi SW 5.8 mph - N/A   Overcast
2:53 AM 57.0 °F 54.0 °F 89% 29.85 in 6.0 mi WSW 5.8 mph - N/A   Overcast
3:53 AM 55.9 °F 53.1 °F 90% 29.85 in 5.0 mi SSW 6.9 mph - N/A   Mostly Cloudy
4:24 AM 55.4 °F 53.6 °F 94% 29.86 in 5.0 mi WSW 4.6 mph - N/A   Overcast
4:42 AM 55.4 °F 53.6 °F 94% 29.87 in 5.0 mi NW 10.4 mph - N/A   Overcast
5:12 AM 53.6 °F 50.0 °F 88% 29.87 in 7.0 mi NNW 9.2 mph - N/A   Overcast
5:53 AM 53.1 °F 48.9 °F 86% 29.89 in 6.0 mi North 11.5 mph - N/A   Overcast
6:19 AM 53.6 °F 48.2 °F 82% 29.91 in 6.0 mi North 6.9 mph - N/A   Overcast
6:48 AM 53.6 °F 48.2 °F 82% 29.91 in 7.0 mi North 5.8 mph - N/A   Overcast
6:53 AM 53.1 °F 48.9 °F 86% 29.92 in 7.0 mi North 8.1 mph - N/A   Overcast
7:53 AM 53.1 °F 48.9 °F 86% 29.94 in 5.0 mi Calm Calm - N/A   Overcast
8:00 AM 53.6 °F 48.2 °F 82% 29.93 in 5.0 mi Calm Calm - N/A   Overcast
8:28 AM 53.6 °F 48.2 °F 82% 29.94 in 5.0 mi North 3.5 mph - N/A   Overcast
8:53 AM 54.0 °F 50.0 °F 86% 29.94 in 6.0 mi NE 3.5 mph - N/A   Overcast
9:17 AM 55.4 °F 50.0 °F 82% 29.94 in 7.0 mi NE 8.1 mph - N/A   Overcast
9:48 AM 55.4 °F 50.0 °F 82% 29.95 in 7.0 mi North 8.1 mph - N/A   Mostly Cloudy
9:53 AM 55.0 °F 50.0 °F 83% 29.95 in 7.0 mi North 9.2 mph - N/A   Overcast
10:53 AM 53.1 °F 48.0 °F 83% 29.97 in 8.0 mi North 9.2 mph - N/A   Overcast
11:53 AM 53.1 °F 48.0 °F 83% 29.95 in 10.0 mi North 6.9 mph - N/A   Overcast
12:53 PM 52.0 °F 48.0 °F 86% 29.93 in 6.0 mi NNE 9.2 mph - N/A   Overcast
1:53 PM 53.1 °F 46.9 °F 80% 29.93 in 10.0 mi North 9.2 mph - N/A   Overcast
2:53 PM 53.1 °F 46.9 °F 80% 29.93 in 10.0 mi North 8.1 mph - N/A   Overcast
3:53 PM 52.0 °F 46.9 °F 83% 29.93 in 10.0 mi NNE 10.4 mph - N/A   Overcast
4:53 PM 51.1 °F 46.9 °F 86% 29.94 in 10.0 mi NNE 10.4 mph - N/A   Overcast
5:53 PM 50.0 °F 46.0 °F 86% 29.96 in 10.0 mi NE 11.5 mph - N/A   Overcast
6:13 PM 50.0 °F 46.4 °F 87% 29.96 in 10.0 mi NE 9.2 mph - N/A   Overcast
6:36 PM 50.0 °F 46.4 °F 87% 29.96 in 10.0 mi NE 10.4 mph - N/A   Overcast
6:53 PM 50.0 °F 46.0 °F 86% 29.96 in 10.0 mi NE 6.9 mph - N/A   Overcast
7:53 PM 48.9 °F 46.0 °F 90% 29.96 in 9.0 mi ENE 5.8 mph - 0.00 in   Overcast
8:53 PM 50.0 °F 46.0 °F 86% 29.95 in 8.0 mi ENE 9.2 mph - N/A   Overcast
9:53 PM 50.0 °F 46.0 °F 86% 29.94 in 9.0 mi East 8.1 mph - N/A   Overcast
10:53 PM 50.0 °F 46.0 °F 86% 29.94 in 8.0 mi East 8.1 mph - N/A   Overcast
11:53 PM 50.0 °F 46.0 °F 86% 29.93 in 7.0 mi East 5.8 mph - N/A   Overcast